User: anonymous   Login
Location: Unspecified
(0.0000°N, 0.0000°E)
Time: 00:01:17
(UTC+00:00)
Language:

STARLINK-34942 - Orbit

View from above orbital plane
View from above orbital plane
View from above satellite
View from above satellite

Ground track
Ground track

The orbit is defined by the following mean orbital elements,

1 65181U          26145.62209014 +.00000000 +00000-0 +19315-3 0 00008
2 65181  97.4476  18.0556 0002470  88.1158 272.0352 15.05657190    09
Epoch (UTC): 25 May 2026 14:55:48
Eccentricity: 0.0002470
inclination: 97.4476°
perigee height: 548 km
apogee height: 551 km
right ascension of ascending node: 18.0556°
argument of perigee: 88.1158°
revolutions per day: 15.05657190
mean anomaly at epoch: 272.0352°

The dashed part of the orbit path shows where the satellite is in the earth's shadow,  

DLR